User: anonymous   Login
Location: Unspecified
(0.0000°N, 0.0000°E)
Time: 16:38:58
(UTC+00:00)
Language:

Relay 1 - Orbit

View from above orbital plane
View from above orbital plane
View from above satellite
View from above satellite

Ground track
Ground track

The orbit data is extracted from the following two-line orbital elements,

1   503U 62068A   18169.29624716 -.00000014 +00000-0 +00000-0 0  9998
2   503 047.5096 202.3373 2843301 276.9754 098.6506 07.78167714578093
Epoch (UTC): 18 June 2018 07:06:35
Eccentricity: 0.2843301
inclination: 47.5096°
perigee height: 1320 km
apogee height: 7437 km
right ascension of ascending node: 202.3373°
argument of perigee: 276.9754°
revolutions per day: 7.78167714
mean anomaly at epoch: 98.6506°
orbit number at epoch: 57809

The dashed part of the orbit path shows where the satellite is in the earth's shadow,  

DLR